Regional Weather Roundup
Issued by NWS

Home | Current Version | Previous Version | Text Only | Print | Product List | Glossary On
Versions: 1 2 3 4 5 6 7 8 9 10 11 12 13 14 15 16 17 18 19 20 21 22 23 24 25 26 27 28 29 30 31 32 33 34 35 36 37 38 39 40 41 42 43 44 45 46 47 48 49 50
000
ASUS43 KBIS 250010
RWRND

NORTH DAKOTA REGIONAL WEATHER ROUNDUP
NATIONAL WEATHER SERVICE BISMARCK ND
700 PM CDT SUN JUL 24 2016

NOTE: "FAIR" INDICATES FEW OR NO CLOUDS BELOW 12,000 FEET WITH NO
SIGNIFICANT WEATHER AND/OR OBSTRUCTIONS TO VISIBILITY.


NDZ001>003-009>011-017-250100-
NORTHWEST NORTH DAKOTA

CITY           SKY/WX    TMP DP  RH WIND       PRES   REMARKS
WILLISTON      SUNNY     88  50  27 NW7       29.98F
6HR MIN TEMP:  80; 6HR MAX TEMP:  88;

MINOT          SUNNY     83  57  41 NW9       29.98F
MINOT AFB      SUNNY     80  56  44 NW12      29.97F
$$

NDZ018>021-031>035-040>046-250100-
SOUTHWEST NORTH DAKOTA

CITY           SKY/WX    TMP DP  RH WIND       PRES   REMARKS
BISMARCK       SUNNY     84  56  38 N8        30.02S
6HR MIN TEMP:  80; 6HR MAX TEMP:  85;

DICKINSON      SUNNY     82  46  28 W7        30.02F
GARRISON         N/A     80  56  43 NW6       30.01F
6HR MIN TEMP:  76; 6HR MAX TEMP:  81;

HETTINGER ARPT MOSUNNY   88  44  21 NE10      30.06F
$$

NDZ004>008-012>016-024-026-027-054-250100-
NORTHEAST NORTH DAKOTA

CITY           SKY/WX    TMP DP  RH WIND       PRES   REMARKS
GRAND FORKS    MOSUNNY   79  60  52 W10       29.90S
GRND FRKS AFB  SUNNY     78  58  50 NW12      29.92S
DEVILS LAKE    SUNNY     76  56  49 W20       29.96S
$$

NDZ022-023-025-028>030-036>039-047>053-250100-
SOUTHEAST NORTH DAKOTA

CITY           SKY/WX    TMP DP  RH WIND       PRES   REMARKS
FARGO          SUNNY     80  57  45 NW13      29.94S
6HR MIN TEMP:  80; 6HR MAX TEMP:  83;

JAMESTOWN      SUNNY     79  58  48 NW15      29.98S
$$





USA.gov is the U.S. government's official web portal to all federal, state and local government web resources and services.